[[{"header":{"parameterUnit":"m.s-1","parameterCategory":1,"la1":30.2991,"la2":30.254,"lo1":-89.0895,"lo2":-89.0444,"dy":0.0017,"dx":0.0017,"nx":28,"ny":28,"refTime":"2024-08-09T21:00:00:Z","depth":0,"parameterNumber":2,"parameterNumberName":"U-component_of_WINDS"},"data":[0,0,0,0,0,0,0,0,0,0,0,0,0,0,0,0,0,0,0,0,0,0,0,0,0,0,0,0,0,0,0,0,0,0,0,0,0,0,0,0,0,0,0,0,0,0,0,0,0,0,0,0,0,0,0,0,0,0,-0.2651,-0.2651,0,-0.2713,-0.2714,-0.2714,-0.2701,-0.27,-0.2699,-0.2698,-0.2764,-0.2767,-0.277,0,0,0,0,0,0,0,0,0,0,0,0,0,-0.2522,-0.2524,-0.265,-0.2651,-0.2652,-0.2713,-0.2714,-0.2714,-0.2701,-0.27,-0.2699,-0.2697,-0.2763,-0.2767,-0.277,0,0,0,0,0,0,0,0,0,0,0,0,0,-0.258,-0.2525,-0.265,-0.2653,-0.2654,-0.2713,-0.2714,-0.2715,-0.2702,-0.27,-0.2698,-0.2697,-0.2762,-0.2766,-0.277,-0.2832,0,0,-0.2783,-0.2785,0,0,0,0,0,0,0,0,-0.2577,-0.2585,-0.2652,-0.2653,-0.2654,-0.2697,-0.2693,-0.2754,-0.2702,-0.2684,-0.2698,-0.2696,-0.2743,-0.2749,-0.2765,-0.2835,-0.2837,-0.2784,-0.2786,-0.2788,-0.2789,0,0,0,0,0,0,0,-0.2573,-0.2582,-0.2675,-0.2653,-0.2654,-0.2651,-0.2658,-0.2704,-0.2723,-0.2685,-0.2684,-0.2692,-0.2744,-0.2761,-0.2766,-0.2838,-0.2784,-0.2787,-0.279,-0.2792,-0.2962,-0.2964,0,0,0,0,0,0,-0.2568,-0.2579,-0.2673,-0.2677,-0.261,-0.2655,-0.2662,-0.2685,-0.2722,-0.2726,-0.2693,-0.2691,-0.2754,-0.2761,-0.2769,-0.2843,-0.2788,-0.2792,-0.2795,-0.296,-0.2962,-0.2964,0,0,0,0,0,0,-0.2565,-0.2576,-0.2671,-0.2628,-0.264,-0.2659,-0.2685,-0.2687,-0.2704,-0.2728,-0.2732,-0.2707,-0.2753,-0.2763,-0.2816,-0.2845,-0.2794,-0.2798,-0.2957,-0.2961,-0.2963,-0.2992,0,0,0,0,0,0,-0.2561,-0.2575,-0.2599,-0.2628,-0.2642,-0.2717,-0.2687,-0.269,-0.2711,-0.2709,-0.2742,-0.2746,-0.2753,-0.281,-0.282,-0.285,-0.2801,-0.2955,-0.2959,-0.2962,-0.2989,-0.2996,-0.3002,0,0,0,0,0,-0.2557,-0.2605,-0.26,-0.2611,-0.2671,-0.2718,-0.2726,-0.2732,-0.2714,-0.2738,-0.2753,-0.2745,-0.284,-0.2815,-0.2827,-0.2859,-0.2953,-0.2958,-0.2962,-0.2986,-0.2995,-0.3002,0,0,0,0,0,0,-0.2579,-0.2609,-0.2604,-0.2662,-0.2688,-0.2716,-0.2746,-0.2741,-0.2773,-0.277,-0.2776,-0.2784,-0.2838,-0.2854,-0.2826,-0.292,-0.2894,-0.2901,-0.2908,-0.2917,-0.2923,-0.2919,-0.2805,0,0,0,0,0,-0.259,-0.2625,-0.265,-0.2699,-0.2712,-0.2727,-0.2748,-0.275,-0.2777,-0.2788,-0.2807,-0.2834,-0.287,-0.2894,-0.2928,-0.299,-0.2998,-0.3018,-0.3024,-0.303,-0.3036,-0.3071,-0.308,-0.2979,-0.2979,-0.2979,0,0,-0.2615,-0.2635,-0.2657,-0.2704,-0.2724,-0.2761,-0.2736,-0.2776,-0.2804,-0.2794,-0.2846,-0.2861,-0.2891,-0.2949,-0.2976,-0.2964,-0.3065,-0.3035,-0.3039,-0.3043,-0.3076,-0.3086,-0.3094,-0.2982,-0.2981,-0.2981,0,0,-0.2679,-0.2697,-0.2741,-0.2761,-0.2791,-0.2801,-0.2811,-0.284,-0.2849,-0.2901,-0.2894,-0.2927,-0.2989,-0.3011,-0.303,-0.3101,-0.3096,-0.3112,-0.3147,-0.3181,-0.3189,-0.3196,-0.3222,-0.3231,-0.3118,-0.3118,-0.3118,0,-0.2706,-0.2761,-0.2764,-0.2805,-0.2826,-0.2817,-0.2862,-0.2882,-0.2922,-0.2937,-0.2922,-0.2999,-0.3019,-0.3083,-0.31,-0.3115,-0.3128,-0.311,-0.3187,-0.3194,-0.3201,-0.3226,-0.3236,-0.312,-0.312,-0.312,-0.312,0,-0.2793,-0.2831,-0.2862,-0.2901,-0.2925,-0.2967,-0.2978,-0.3002,-0.3002,-0.3013,-0.3066,-0.3089,-0.3128,-0.3143,-0.3143,-0.3207,-0.3198,-0.3185,-0.316,-0.3212,-0.3236,-0.3246,-0.3123,-0.3122,-0.3122,-0.3121,0,0,-0.2874,-0.2913,-0.2924,-0.2942,-0.2974,-0.3004,-0.3045,-0.3083,-0.3104,-0.3131,-0.3168,-0.3219,-0.3207,-0.3229,-0.3232,-0.3261,-0.3317,-0.3244,-0.3245,-0.3258,-0.3389,-0.34,-0.3411,-0.3312,-0.3314,-0.3315,-0.3387,0,-0.2942,-0.3015,-0.3019,-0.3087,-0.3122,-0.3114,-0.315,-0.3174,-0.3185,-0.3218,-0.323,-0.3267,-0.3248,-0.3261,-0.3289,-0.3304,-0.3343,-0.3299,-0.3347,-0.3349,-0.3341,-0.3423,-0.3435,-0.3501,-0.3396,-0.3397,-0.3399,0,-0.3031,-0.3061,-0.3131,-0.3158,-0.3173,-0.3206,-0.324,-0.3271,-0.3298,-0.3304,-0.3328,-0.3326,-0.337,-0.3341,-0.3402,-0.3371,-0.3391,-0.3401,-0.3404,-0.341,-0.3378,-0.3433,-0.3522,-0.3532,-0.3413,-0.3412,-0.3411,0,-0.3085,-0.3142,-0.3192,-0.3207,-0.3239,-0.3262,-0.3277,-0.3302,-0.3324,-0.3354,-0.3369,-0.3403,-0.3423,-0.345,-0.3458,-0.3437,-0.3519,-0.3491,-0.3526,-0.3526,-0.3546,-0.3545,-0.3641,-0.3556,-0.3555,-0.3555,-0.3555,0,-0.3161,-0.3205,-0.3216,-0.3247,-0.3296,-0.33,-0.3348,-0.3361,-0.3384,-0.3417,-0.3412,-0.3444,-0.3451,-0.3485,-0.3491,-0.3541,-0.3549,-0.3556,-0.3558,-0.3557,-0.3557,-0.3572,-0.3568,-0.3558,-0.3557,-0.3557,-0.3556,0,-0.323,-0.324,-0.3293,-0.3319,-0.3326,-0.3361,-0.3384,-0.3413,-0.3423,-0.3465,-0.3476,-0.3491,-0.353,-0.354,-0.3587,-0.3591,-0.365,-0.3646,-0.3641,-0.3641,-0.3676,-0.3673,-0.3787,-0.3802,-0.3706,-0.3707,-0.3707,0,-0.3279,-0.3313,-0.3341,-0.3363,-0.3379,-0.3414,-0.3436,-0.3441,-0.3464,-0.3497,-0.3523,-0.3561,-0.3592,-0.3654,-0.367,-0.3706,-0.3704,-0.3741,-0.3709,-0.3708,-0.3706,-0.3705,-0.3708,-0.3748,-0.3749,-0.375,-0.375,0,-0.3366,-0.3368,-0.34,-0.3434,-0.346,-0.3487,-0.3513,-0.3531,-0.3539,-0.3566,-0.3605,-0.3629,-0.3676,-0.3714,-0.375,-0.3765,-0.376,-0.376,-0.377,-0.3771,-0.3767,-0.3771,-0.3659,-0.3758,-0.3757,-0.3756,-0.3756,-0.3756,-0.3427,-0.3456,-0.3481,-0.3517,-0.3536,-0.356,-0.359,-0.3602,-0.3635,-0.3673,-0.3674,-0.3717,-0.3743,-0.379,-0.3807,-0.3841,-0.383,-0.3845,-0.3849,-0.3853,-0.3856,-0.376,-0.3848,-0.3847,-0.3847,-0.3847,-0.3847,0,-0.3514,-0.3529,-0.3562,-0.3598,-0.3626,-0.3616,-0.3644,-0.3669,-0.3706,-0.373,-0.376,-0.3805,-0.3842,-0.386,-0.3897,-0.392,-0.3919,-0.393,-0.3929,-0.3933,-0.3864,-0.3852,-0.3931,-0.3931,-0.3931,-0.3931,-0.3931,-0.3931,-0.3563,-0.3612,-0.3618,-0.3677,-0.3692,-0.3733,-0.375,-0.3772,-0.3791,-0.3842,-0.3872,-0.3883,-0.3905,-0.3943,-0.3976,-0.398,-0.3995,-0.4008,-0.4011,-0.3946,-0.3938,-0.393,-0.3919,-0.401,-0.401,-0.4078,-0.4078,-0.4079]},{"header":{"parameterUnit":"m.s-1","parameterCategory":1,"la1":30.2991,"la2":30.254,"lo1":-89.0895,"lo2":-89.0444,"dy":0.0017,"dx":0.0017,"nx":28,"ny":28,"refTime":"2024-08-09T21:00:00:Z","depth":0,"parameterNumber":3,"parameterNumberName":"V-component_of_WINDS"},"data":[0,0,0,0,0,0,0,0,0,0,0,0,0,0,0,0,0,0,0,0,0,0,0,0,0,0,0,0,0,0,0,0,0,0,0,0,0,0,0,0,0,0,0,0,0,0,0,0,0,0,0,0,0,0,0,0,0,0,-3.864,-3.8641,0,-3.8697,-3.8697,-3.8698,-3.8632,-3.8629,-3.8627,-3.8624,-3.868,-3.8683,-3.8687,0,0,0,0,0,0,0,0,0,0,0,0,0,-3.8473,-3.8476,-3.864,-3.8641,-3.8642,-3.8696,-3.8697,-3.8698,-3.8632,-3.8629,-3.8626,-3.8623,-3.8678,-3.8683,-3.8687,0,0,0,0,0,0,0,0,0,0,0,0,0,-3.8539,-3.8477,-3.864,-3.8615,-3.8614,-3.8696,-3.8697,-3.8698,-3.8633,-3.8629,-3.8625,-3.8622,-3.8677,-3.8682,-3.8688,-3.8797,0,0,-3.8705,-3.8708,0,0,0,0,0,0,0,0,-3.8535,-3.8545,-3.8618,-3.8617,-3.8616,-3.8653,-3.8658,-3.8731,-3.8634,-3.8625,-3.8624,-3.862,-3.8674,-3.8679,-3.8698,-3.8799,-3.8802,-3.8706,-3.8709,-3.8711,-3.8713,0,0,0,0,0,0,0,-3.8531,-3.8542,-3.8662,-3.862,-3.8618,-3.8601,-3.8606,-3.8672,-3.8669,-3.8626,-3.8621,-3.8629,-3.8672,-3.8693,-3.8699,-3.8802,-3.8705,-3.871,-3.8714,-3.8716,-3.8995,-3.8999,0,0,0,0,0,0,-3.8529,-3.8539,-3.8661,-3.8664,-3.8566,-3.8607,-3.8613,-3.8645,-3.8669,-3.8669,-3.8632,-3.8626,-3.8685,-3.8692,-3.87,-3.8829,-3.8711,-3.8717,-3.872,-3.8991,-3.8996,-3.9,0,0,0,0,0,0,-3.8526,-3.8541,-3.8658,-3.86,-3.8614,-3.8613,-3.865,-3.8648,-3.8668,-3.8673,-3.8672,-3.8654,-3.8682,-3.8692,-3.8773,-3.883,-3.8719,-3.8724,-3.8986,-3.8992,-3.8998,-3.9087,0,0,0,0,0,0,-3.8522,-3.854,-3.8582,-3.8602,-3.8617,-3.8732,-3.8654,-3.8652,-3.8679,-3.8671,-3.8693,-3.8693,-3.868,-3.8765,-3.8779,-3.8836,-3.8729,-3.8981,-3.8989,-3.8996,-3.9079,-3.9096,-3.911,0,0,0,0,0,-3.8516,-3.8605,-3.8585,-3.86,-3.867,-3.8735,-3.8744,-3.8727,-3.8684,-3.8725,-3.8728,-3.8693,-3.8822,-3.8774,-3.8789,-3.8848,-3.8977,-3.8987,-3.8996,-3.9073,-3.9093,-3.9109,0,0,0,0,0,0,-3.8591,-3.8607,-3.8585,-3.8683,-3.8708,-3.8724,-3.8776,-3.8749,-3.8787,-3.8778,-3.8755,-3.876,-3.8846,-3.8855,-3.8802,-3.8954,-3.8892,-3.8905,-3.8946,-3.8965,-3.898,-3.8976,-3.8733,0,0,0,0,0,-3.8619,-3.8671,-3.8682,-3.8767,-3.8781,-3.8777,-3.8804,-3.879,-3.8814,-3.8824,-3.8833,-3.8858,-3.8904,-3.8935,-3.8977,-3.908,-3.9084,-3.9128,-3.9143,-3.9156,-3.9167,-3.9221,-3.9241,-3.903,-3.903,-3.903,0,0,-3.8678,-3.8693,-3.8727,-3.8783,-3.8801,-3.8854,-3.8786,-3.8846,-3.8885,-3.8833,-3.891,-3.8918,-3.8944,-3.9036,-3.9077,-3.9046,-3.9226,-3.9167,-3.9177,-3.9182,-3.9233,-3.9253,-3.9271,-3.9036,-3.9035,-3.9034,0,0,-3.8812,-3.8829,-3.8901,-3.8921,-3.8949,-3.8945,-3.8963,-3.8982,-3.8986,-3.9063,-3.9025,-3.907,-3.915,-3.917,-3.9191,-3.9332,-3.9301,-3.9347,-3.9426,-3.9479,-3.9496,-3.9511,-3.9561,-3.9579,-3.9357,-3.9358,-3.9358,0,-3.888,-3.8961,-3.8942,-3.9005,-3.903,-3.8986,-3.9059,-3.9079,-3.9119,-3.9137,-3.9102,-3.9201,-3.9215,-3.9312,-3.9346,-3.9364,-3.9383,-3.9344,-3.9495,-3.951,-3.9523,-3.9571,-3.9589,-3.9363,-3.9362,-3.9362,-3.9361,0,-3.9044,-3.91,-3.9155,-3.9196,-3.9228,-3.9296,-3.9286,-3.932,-3.9303,-3.9302,-3.9381,-3.9397,-3.9441,-3.9463,-3.9446,-3.9557,-3.9537,-3.9499,-3.9436,-3.9549,-3.9593,-3.9611,-3.9371,-3.9369,-3.9367,-3.9366,0,0,-3.9227,-3.9257,-3.9277,-3.9295,-3.9323,-3.9365,-3.9431,-3.9475,-3.9505,-3.9534,-3.9587,-3.9656,-3.9621,-3.9644,-3.9629,-3.9676,-3.9786,-3.9632,-3.9632,-3.966,-3.9909,-3.9937,-3.9959,-3.9765,-3.9769,-3.9772,-3.9906,0,-3.9361,-3.9475,-3.946,-3.9569,-3.962,-3.9579,-3.9636,-3.9658,-3.966,-3.9702,-3.9703,-3.9752,-3.9703,-3.9716,-3.9761,-3.9764,-3.9836,-3.9754,-3.9814,-3.9817,-3.9809,-3.9982,-4.0012,-4.0138,-3.9924,-3.9927,-3.9929,0,-3.9533,-3.9569,-3.9684,-3.9703,-3.9724,-3.9775,-3.9815,-3.9857,-3.9881,-3.9878,-3.9905,-3.9881,-3.9945,-3.9881,-3.9969,-3.9913,-3.9937,-3.9942,-3.9946,-3.9951,-3.988,-3.9991,-4.0178,-4.0198,-3.9956,-3.9954,-3.9952,0,-3.9655,-3.9732,-3.9811,-3.9827,-3.9852,-3.9889,-3.99,-3.9921,-3.9949,-3.9983,-4.0,-4.0041,-4.0064,-4.0095,-4.0083,-4.0037,-4.0173,-4.0108,-4.0172,-4.0172,-4.0202,-4.0201,-4.0396,-4.0218,-4.0218,-4.0217,-4.0217,0,-3.9807,-3.9878,-3.9866,-3.9914,-3.9993,-3.9974,-4.0052,-4.0058,-4.0077,-4.0125,-4.0092,-4.0137,-4.0118,-4.0162,-4.0152,-4.0226,-4.0236,-4.0235,-4.0232,-4.0239,-4.0239,-4.0254,-4.0245,-4.0222,-4.0221,-4.022,-4.0219,0,-3.9956,-3.9951,-4.0034,-4.005,-4.0056,-4.0113,-4.0127,-4.0171,-4.017,-4.0231,-4.0244,-4.0242,-4.0292,-4.0283,-4.0337,-4.0331,-4.0423,-4.0409,-4.0416,-4.0412,-4.0477,-4.0471,-4.0689,-4.0716,-4.0521,-4.0523,-4.0524,0,-4.0053,-4.0108,-4.013,-4.016,-4.0175,-4.0224,-4.0252,-4.0236,-4.0266,-4.0298,-4.0339,-4.0386,-4.0423,-4.0504,-4.0507,-4.0548,-4.0535,-4.0608,-4.0541,-4.0545,-4.0535,-4.0532,-4.0537,-4.0621,-4.0624,-4.0626,-4.0627,0,-4.0226,-4.0221,-4.0263,-4.0305,-4.034,-4.0372,-4.04,-4.0426,-4.0412,-4.0448,-4.0499,-4.0528,-4.0584,-4.0631,-4.067,-4.068,-4.0652,-4.0648,-4.0665,-4.0672,-4.0674,-4.0674,-4.0452,-4.0643,-4.0642,-4.064,-4.064,-4.0639,-4.0352,-4.0398,-4.0422,-4.047,-4.0489,-4.0517,-4.056,-4.0564,-4.0606,-4.0652,-4.0639,-4.0697,-4.0719,-4.0768,-4.0783,-4.0828,-4.08,-4.0825,-4.0831,-4.0837,-4.0845,-4.0667,-4.0834,-4.0834,-4.0834,-4.0833,-4.0833,0,-4.0523,-4.0536,-4.0581,-4.0622,-4.0659,-4.063,-4.0659,-4.0693,-4.0744,-4.0768,-4.0805,-4.0863,-4.0909,-4.0915,-4.0957,-4.0992,-4.0979,-4.1003,-4.1001,-4.1003,-4.0867,-4.0848,-4.1013,-4.1013,-4.1013,-4.1013,-4.1012,-4.1012,-4.0616,-4.0693,-4.069,-4.0776,-4.0787,-4.0845,-4.0864,-4.0889,-4.0907,-4.0975,-4.1013,-4.1016,-4.1033,-4.1076,-4.1116,-4.1116,-4.1133,-4.1163,-4.1158,-4.1031,-4.1013,-4.0996,-4.0978,-4.1167,-4.1167,-4.129,-4.1291,-4.1292]}]]